TimeEST,TemperatureF,Dew PointF,Humidity,Sea Level PressureIn,VisibilityMPH,Wind Direction,Wind SpeedMPH,Gust SpeedMPH,PrecipitationIn,Events,Conditions,WindDirDegrees,DateUTC
12:53 AM,42.1,41.0,96,30.07,-9999.0,Calm,Calm,-,N/A,,Unknown,0,2012-12-20 05:53:00
1:53 AM,42.1,41.0,96,30.07,-9999.0,Calm,Calm,-,N/A,,Unknown,0,2012-12-20 06:53:00
2:53 AM,41.0,39.9,96,30.06,-9999.0,Calm,Calm,-,N/A,,Unknown,0,2012-12-20 07:53:00
3:53 AM,42.1,39.9,92,30.04,-9999.0,ESE,3.5,-,N/A,,Unknown,110,2012-12-20 08:53:00
4:53 AM,48.9,46.9,93,30.03,-9999.0,ESE,4.6,-,0.01,,Unknown,120,2012-12-20 09:53:00
5:53 AM,48.0,46.0,93,30.04,-9999.0,ESE,3.5,-,N/A,,Unknown,120,2012-12-20 10:53:00
6:53 AM,48.9,48.0,97,30.04,-9999.0,SE,5.8,-,N/A,,Unknown,130,2012-12-20 11:53:00
7:53 AM,51.1,50.0,96,30.01,-9999.0,SE,6.9,-,0.01,,Unknown,140,2012-12-20 12:53:00
8:53 AM,57.9,53.1,84,30.01,-9999.0,SSE,4.6,-,N/A,,Unknown,150,2012-12-20 13:53:00
9:53 AM,66.9,53.1,61,29.99,-9999.0,SSE,9.2,-,0.01,,Unknown,150,2012-12-20 14:53:00
10:53 AM,73.0,55.9,55,30.00,-9999.0,South,10.4,-,N/A,,Unknown,180,2012-12-20 15:53:00
11:53 AM,77.0,61.0,58,29.98,-9999.0,South,18.4,27.6,N/A,,Unknown,190,2012-12-20 16:53:00
12:53 PM,73.0,63.0,71,29.93,-9999.0,South,15.0,26.5,N/A,,Unknown,190,2012-12-20 17:53:00
1:53 PM,72.0,64.9,78,29.89,-9999.0,South,12.7,19.6,N/A,,Unknown,190,2012-12-20 18:53:00
2:53 PM,71.1,66.0,84,29.87,-9999.0,South,12.7,25.3,N/A,,Unknown,180,2012-12-20 19:53:00
3:53 PM,71.1,66.9,87,29.85,-9999.0,South,19.6,29.9,N/A,,Unknown,180,2012-12-20 20:53:00
4:53 PM,71.1,68.0,90,29.83,-9999.0,South,19.6,32.2,0.13,,Unknown,180,2012-12-20 21:53:00
5:53 PM,-9999,-9999,N/A,29.83,-9999.0,SSW,26.5,47.2,0.47,,Unknown,210,2012-12-20 22:53:00
6:53 PM,-9999,-9999,N/A,29.86,-9999.0,SW,12.7,-,0.05,,Unknown,230,2012-12-20 23:53:00
7:53 PM,-9999,-9999,N/A,29.88,-9999.0,WSW,16.1,-,0.01,,Unknown,240,2012-12-21 00:53:00
8:53 PM,-9999,-9999,N/A,29.91,-9999.0,WNW,17.3,28.8,N/A,,Unknown,300,2012-12-21 01:53:00
9:08 PM,-9999,-9999,N/A,29.92,-9999.0,NW,13.8,25.3,N/A,,Unknown,310,2012-12-21 02:08:00
9:53 PM,-9999,-9999,N/A,29.94,-9999.0,WNW,11.5,-,N/A,,Unknown,290,2012-12-21 02:53:00
10:53 PM,-9999,-9999,N/A,29.97,-9999.0,WNW,15.0,21.9,N/A,,Unknown,300,2012-12-21 03:53:00
11:53 PM,-9999,-9999,N/A,30.02,-9999.0,WNW,20.7,31.1,N/A,,Unknown,300,2012-12-21 04:53:00